Regional Weather Roundup
Issued by NWS

Home | Current Version | Previous Version | Graphics & Text | Print | Product List | Glossary On
Versions: 1 2 3 4 5 6 7 8 9 10 11 12 13 14 15 16 17 18 19 20 21 22 23 24 25 26 27 28 29 30 31 32 33 34 35 36 37 38 39 40 41 42 43 44 45 46 47 48 49 50
000
ASUS43 KDMX 242107
RWRIA

WEATHER ROUNDUP FOR IOWA
NATIONAL WEATHER SERVICE DES MOINES IA
300 PM CST WED DEC 24 2014

NOTE: "FAIR" INDICATES FEW OR NO CLOUDS BELOW 12,000 FEET WITH NO
SIGNIFICANT WEATHER AND/OR OBSTRUCTIONS TO VISIBILITY.

* - THESE STATIONS ARE NOT NWS STATIONS...THUS NOT UNDER NWS
QUALITY CONTROL.  THEY ALSO DO NOT REPORT WEATHER SUCH
AS PRECIPITATION OR FOG.

IAZ001>003-012>014-020>022-031>034-043>046-242200-
   NORTHWEST IOWA

CITY           SKY/WX    TMP DP  RH WIND       PRES   REMARKS
CARROLL *      CLOUDY    32  30  93 W14       29.73S WCI  22
CHEROKEE *     CLOUDY    28  28 100 W7        29.72S WCI  21
DENISON *      CLOUDY    30  30 100 W10       29.72F WCI  21
LE MARS *      CLOUDY    28  27  93 W10       29.74R FOG     WCI  19
ORANGE CITY *  FOG       28  27  93 W14       29.71R VSB 1/2 WCI  17
SHELDON *      CLOUDY    27  28 100 W8G14     29.69R FOG     WCI  18
SIOUX CITY     CLOUDY    28  25  88 W8        29.75F WCI  20
SPENCER        CLOUDY    31  27  85 NW9       29.70S WCI  23
STORM LAKE *   CLOUDY    28  28 100 W10       29.71F WCI  19
$$

IAZ055>058-069>071-079>083-090>094-242200-
   SOUTHWEST IOWA

CITY           SKY/WX    TMP DP  RH WIND       PRES   REMARKS
ATLANTIC *     CLOUDY    32  30  93 NW10      29.75F WCI  24
AUDUBON *      CLOUDY    30  27  86 W8        29.74F WCI  23
CLARINDA *     CLOUDY    34  30  86 NW10      29.80S WCI  26
COUNCIL BLFS * CLOUDY    30  30 100 W10       29.75F FOG     WCI  21
CRESTON *      LGT SNOW  32  32 100 NW12G17   29.74S WCI  23
HARLAN  *      CLOUDY    30  30 100 NW8       29.78F WCI  23
LAMONI         CLOUDY    35  31  85 NW14      29.73F WCI  26
RED OAK *      CLOUDY    32  30  93 NW7       29.78S WCI  26
SHENANDOAH *   CLOUDY    32  30  93 NW8G14    29.80S WCI  25
$$

IAZ047>049-059>061-072>074-084-242200-
   CENTRAL IOWA

CITY           SKY/WX    TMP DP  RH WIND       PRES   REMARKS
AMES           CLOUDY    34  30  85 NW12      29.70F WCI  25
ANKENY *       CLOUDY    34  32  93 W13       29.70F WCI  25
CHARITON *     CLOUDY    34  32  93 NW15      29.71S WCI  24
DES MOINES     CLOUDY    35  31  85 NW16      29.71F WCI  25
GRINNELL*      CLOUDY    34  32  93 NW18      29.67S WCI  23
KNOXVILLE *    CLOUDY    34  32  93 NW15G22   29.68F WCI  24
MARSHALLTOWN   CLOUDY    34  31  88 NW14      29.66S WCI  25
PELLA *        CLOUDY    36  32  87 NW15      29.69F WCI  26
PERRY *        CLOUDY    34  32  93 NW7       29.72S WCI  28
$$

IAZ004>006-015-016-023>025-035-036-242200-
   NORTH CENTRAL IOWA

CITY           SKY/WX    TMP DP  RH WIND       PRES   REMARKS
ALGONA *       CLOUDY    32  32 100 NW8G15    29.69R WCI  25
CLARION *      CLOUDY    32  32 100 NW14      29.69R WCI  22
ESTHERVILLE    CLOUDY    31  28  89 W10       29.68S WCI  22
FORT DODGE *   CLOUDY    32  27  80 W9        29.71S WCI  24
MASON CITY     CLOUDY    33  30  88 NW15      29.67R WCI  23
FOREST CITY *  CLOUDY    32  32 100 NW12      29.66R WCI  23
IOWA FALLS *   CLOUDY    34  32  93 W16       29.68R WCI  23
$$

IAZ007>011-017>019-026>030-037>042-050>054-066-242200-
   NORTHEAST IOWA

CITY           SKY/WX    TMP DP  RH WIND       PRES   REMARKS
CEDAR RAPIDS   CLOUDY    36  33  89 NW14      29.61R WCI  27
CHARLES CITY * CLOUDY    34  34 100 NW12      29.63S WCI  25
CLINTON *      CLOUDY    36  30  80 NW16      29.59S WCI  26
DECORAH *      CLOUDY    36  32  87 NW12G17   29.58S WCI  27
DUBUQUE        CLOUDY    34  31  88 NW14      29.56S WCI  25
MONTICELLO *   CLOUDY    36  34  93 NW12G17   29.59R WCI  27
OELWEIN *      CLOUDY    36  34  93 NW15G22   29.60S WCI  26
WATERLOO       LGT RAIN  36  33  89 NW15      29.62F WCI  27
$$

IAZ064-065-067-068-078-242200-
   EAST CENTRAL IOWA

CITY           SKY/WX    TMP DP  RH WIND       PRES   REMARKS
DAVENPORT      CLOUDY    36  31  82 NW13      29.58S WCI  27
IOWA CITY      CLOUDY    37  32  82 NW10      29.64R WCI  30
MT. PLEASANT * CLOUDY    36  32  87 W13       29.65R WCI  27
MUSCATINE *    CLOUDY    37  32  81 NW17      29.62S WCI  28
QUAD CITIES    CLOUDY    36  31  82 NW15      29.58S WCI  27
$$

IAZ062-063-075>077-085>089-095>099-242200-
   SOUTHEAST IOWA

CITY           SKY/WX    TMP DP  RH WIND       PRES   REMARKS
BURLINGTON     CLOUDY    37  33  85 NW12G20   29.62S WCI  29
FAIRFIELD *    CLOUDY    36  32  87 NW16      29.66R WCI  26
FORT MADISON * CLOUDY    39  36  87 NW16G22   29.64S WCI  30
KEOKUK *       CLOUDY    37  34  87 NW13G21   29.65R WCI  29
OSKALOOSA *    CLOUDY    36  32  87 NW18G25   29.68R WCI  25
CENTERVILLE *  LGT RAIN  34  34 100 W16       29.72R WCI  23
OTTUMWA        CLOUDY    37  32  82 W12       29.68R WCI  29
WASHINGTON *   CLOUDY    37  37 100 NW15      29.64R WCI  28
$$

ABBREVIATIONS USED IN REMARKS
   TC - TEMPERATURES IN CELSIUS
  WCI - WIND CHILL INDEX
   HX - HEAT INDEX
  VSB - VISIBILITY
$$



USA.gov is the U.S. government's official web portal to all federal, state and local government web resources and services.